| time (UTC) | temp F | wind direction | speed knots | gust knots | rain 1hr in | rain 24hr in | rain mn in | humidity % | barometer mb |
| 20260502123603 | 50 | 191 | 0.0 | 0.9 | 0.00 | 0.00 | 0.00 | 55 | 1027.4 |
| 20260502122703 | 50 | 0 | 0.0 | 0.0 | 0.00 | 0.00 | 0.00 | 57 | 1027.4 |
| 20260502121824 | 50 | 0 | 0.0 | 0.0 | 0.00 | 0.00 | 0.00 | 57 | 1027.4 |
| 20260502120903 | 50 | 173 | 0.0 | 1.7 | 0.00 | 0.00 | 0.00 | 58 | 1027.4 |
| 20260502115403 | 50 | 173 | 0.0 | 0.9 | 0.00 | 0.00 | 0.00 | 58 | 1027.4 |
| 20260502113603 | 51 | 173 | 0.0 | 1.7 | 0.00 | 0.00 | 0.00 | 56 | 1027.4 |
| 20260502112703 | 51 | 173 | 0.0 | 0.9 | 0.00 | 0.00 | 0.00 | 54 | 1027.4 |
| 20260502111803 | 51 | 173 | 0.0 | 1.7 | 0.00 | 0.00 | 0.00 | 55 | 1027.4 |
| 20260502110903 | 51 | 172 | 0.0 | 3.5 | 0.00 | 0.00 | 0.00 | 52 | 1027.4 |
| 20260502110003 | 50 | 173 | 0.0 | 0.9 | 0.00 | 0.00 | 0.00 | 49 | 1027.4 |
| 20260502105424 | 50 | 175 | 0.0 | 1.7 | 0.00 | 0.00 | 0.00 | 48 | 1027.4 |
| 20260502104503 | 50 | 179 | 0.0 | 0.9 | 0.00 | 0.00 | 0.00 | 49 | 1027.4 |
| 20260502103603 | 50 | 0 | 0.0 | 0.0 | 0.00 | 0.00 | 0.00 | 50 | 1027.4 |
| 20260502102703 | 51 | 179 | 0.0 | 1.7 | 0.00 | 0.00 | 0.00 | 51 | 1027.4 |
| 20260502101803 | 51 | 216 | 0.0 | 1.7 | 0.00 | 0.00 | 0.00 | 50 | 1027.4 |
| 20260502100903 | 51 | 221 | 0.0 | 0.9 | 0.00 | 0.00 | 0.00 | 50 | 1027.4 |
| 20260502090903 | 51 | 0 | 0.0 | 0.0 | 0.00 | 0.00 | 0.00 | 44 | 1027.4 |
| 20260502070903 | 48 | 298 | 0.0 | 1.7 | 0.00 | 0.00 | 0.00 | 50 | 1027.4 |
| 20260502070004 | 48 | 298 | 0.0 | 1.7 | 0.00 | 0.00 | 0.00 | 49 | 1027.4 |
| 20260502065403 | 48 | 298 | 0.0 | 1.7 | 0.00 | 0.00 | 0.00 | 49 | 1027.4 |
| 20260502064504 | 48 | 298 | 0.0 | 1.7 | 0.00 | 0.00 | 0.00 | 49 | 1027.4 |
| 20260502063603 | 48 | 298 | 0.0 | 1.7 | 0.00 | 0.00 | 0.00 | 48 | 1027.4 |
| 20260502062703 | 49 | 0 | 0.0 | 0.0 | 0.00 | 0.00 | 0.00 | 48 | 1027.4 |
| 20260502061824 | 49 | 298 | 0.0 | 0.9 | 0.00 | 0.00 | 0.00 | 46 | 1027.4 |
| 20260502060903 | 50 | 298 | 0.0 | 0.9 | 0.00 | 0.00 | 0.00 | 46 | 1027.4 |
| 20260502060004 | 50 | 0 | 0.0 | 0.0 | 0.00 | 0.00 | 0.00 | 44 | 1027.4 |
| 20260502055424 | 50 | 0 | 0.0 | 0.0 | 0.00 | 0.00 | 0.00 | 44 | 1027.4 |
| 20260502054503 | 51 | 298 | 0.0 | 1.7 | 0.00 | 0.00 | 0.00 | 45 | 1027.4 |
| 20260502053603 | 51 | 0 | 0.0 | 0.0 | 0.00 | 0.00 | 0.00 | 44 | 1027.4 |
| 20260502052703 | 52 | 0 | 0.0 | 0.0 | 0.00 | 0.00 | 0.00 | 41 | 1027.4 |
| 20260502051803 | 53 | 0 | 0.0 | 0.0 | 0.00 | 0.00 | 0.00 | 39 | 1027.4 |
| 20260502050903 | 53 | 0 | 0.0 | 0.0 | 0.00 | 0.00 | 0.00 | 39 | 1027.4 |
| 20260502050004 | 53 | 298 | 0.0 | 0.9 | 0.00 | 0.00 | 0.00 | 40 | 1027.4 |
| 20260502045403 | 53 | 298 | 0.0 | 0.9 | 0.00 | 0.00 | 0.00 | 40 | 1027.4 |
| 20260502044504 | 53 | 298 | 0.0 | 0.9 | 0.00 | 0.00 | 0.00 | 40 | 1027.4 |
| 20260502043603 | 54 | 0 | 0.0 | 0.0 | 0.00 | 0.00 | 0.00 | 38 | 1027.4 |
| 20260502042703 | 55 | 298 | 0.0 | 0.9 | 0.00 | 0.00 | 0.00 | 36 | 1027.4 |
| 20260502041803 | 56 | 298 | 0.0 | 0.9 | 0.00 | 0.00 | 0.00 | 36 | 1027.4 |
| 20260502040903 | 56 | 0 | 0.0 | 0.0 | 0.00 | 0.00 | 0.00 | 35 | 1027.4 |
| 20260502040004 | 57 | 299 | 0.0 | 0.9 | 0.00 | 0.00 | 0.00 | 34 | 1027.4 |
| 20260502035404 | 57 | 0 | 0.0 | 0.0 | 0.00 | 0.00 | 0.00 | 35 | 1027.4 |
| 20260502034503 | 58 | 0 | 0.0 | 0.0 | 0.00 | 0.00 | 0.00 | 34 | 1027.4 |
| 20260502033603 | 58 | 0 | 0.0 | 0.0 | 0.00 | 0.00 | 0.00 | 33 | 1027.4 |
| 20260502032703 | 59 | 299 | 0.0 | 0.9 | 0.00 | 0.00 | 0.00 | 32 | 1027.4 |
| 20260502031803 | 60 | 0 | 0.0 | 0.0 | 0.00 | 0.00 | 0.00 | 31 | 1027.4 |
| 20260502030903 | 60 | 0 | 0.0 | 0.0 | 0.00 | 0.00 | 0.00 | 31 | 1027.4 |
| 20260502030004 | 60 | 299 | 0.0 | 0.9 | 0.00 | 0.00 | 0.00 | 30 | 1027.4 |
| 20260502025403 | 60 | 299 | 0.0 | 2.6 | 0.00 | 0.00 | 0.00 | 29 | 1027.4 |
| 20260502024503 | 61 | 299 | 0.0 | 1.7 | 0.00 | 0.00 | 0.00 | 28 | 1027.4 |
| 20260502023604 | 61 | 299 | 0.0 | 2.6 | 0.00 | 0.00 | 0.00 | 28 | 1027.4 |
| 20260502022724 | 61 | 304 | 0.9 | 3.5 | 0.00 | 0.00 | 0.00 | 28 | 1027.4 |
| 20260502021803 | 61 | 306 | 0.9 | 2.6 | 0.00 | 0.00 | 0.00 | 27 | 1027.4 |
| 20260502020903 | 62 | 303 | 1.7 | 6.1 | 0.00 | 0.00 | 0.00 | 27 | 1027.4 |
| 20260502020025 | 62 | 302 | 1.7 | 6.1 | 0.00 | 0.00 | 0.00 | 26 | 1027.4 |
| 20260502015403 | 62 | 312 | 1.7 | 7.0 | 0.00 | 0.00 | 0.00 | 26 | 1027.4 |
| 20260502014503 | 62 | 319 | 3.5 | 9.6 | 0.00 | 0.00 | 0.00 | 26 | 1027.4 |
| 20260502013603 | 63 | 326 | 3.5 | 8.7 | 0.00 | 0.00 | 0.00 | 26 | 1027.4 |
| 20260502012703 | 63 | 332 | 2.6 | 7.8 | 0.00 | 0.00 | 0.00 | 27 | 1027.4 |
| 20260502011803 | 63 | 324 | 3.5 | 10.4 | 0.00 | 0.00 | 0.00 | 26 | 1027.4 |
| 20260502010903 | 64 | 312 | 3.5 | 10.4 | 0.00 | 0.00 | 0.00 | 26 | 1027.4 |
| 20260502010003 | 64 | 322 | 4.3 | 11.3 | 0.00 | 0.00 | 0.00 | 26 | 1027.4 |
| 20260502005403 | 65 | 321 | 3.5 | 11.3 | 0.00 | 0.00 | 0.00 | 26 | 1027.4 |
| 20260502004503 | 65 | 316 | 5.2 | 12.2 | 0.00 | 0.00 | 0.00 | 26 | 1027.4 |
| 20260502003603 | 66 | 321 | 5.2 | 11.3 | 0.00 | 0.00 | 0.00 | 25 | 1027.4 |
| 20260502002703 | 66 | 304 | 3.5 | 8.7 | 0.00 | 0.00 | 0.00 | 24 | 1027.4 |
| 20260502001803 | 66 | 309 | 4.3 | 12.2 | 0.00 | 0.00 | 0.00 | 25 | 1027.4 |
| 20260502000903 | 66 | 300 | 5.2 | 12.2 | 0.00 | 0.00 | 0.00 | 24 | 1027.4 |
| 20260502000003 | 66 | 318 | 4.3 | 12.2 | 0.00 | 0.00 | 0.00 | 25 | 1027.4 |
| 20260501235403 | 66 | 332 | 4.3 | 12.2 | 0.00 | 0.00 | 0.00 | 25 | 1027.4 |
| 20260501234503 | 67 | 323 | 5.2 | 12.2 | 0.00 | 0.00 | 0.00 | 24 | 1027.4 |
| 20260501233603 | 67 | 322 | 3.5 | 11.3 | 0.00 | 0.00 | 0.00 | 24 | 1027.4 |
| 20260501232703 | 67 | 335 | 5.2 | 13.0 | 0.00 | 0.00 | 0.00 | 25 | 1027.4 |
| 20260501231803 | 67 | 332 | 2.6 | 10.4 | 0.00 | 0.00 | 0.00 | 25 | 1027.4 |
| 20260501230903 | 66 | 328 | 5.2 | 15.6 | 0.00 | 0.00 | 0.00 | 24 | 1027.4 |
| 20260501230003 | 67 | 15 | 3.5 | 8.7 | 0.00 | 0.00 | 0.00 | 24 | 1027.4 |
| 20260501225403 | 67 | 360 | 3.5 | 8.7 | 0.00 | 0.00 | 0.00 | 22 | 1027.4 |
| 20260501224503 | 67 | 1 | 3.5 | 9.6 | 0.00 | 0.00 | 0.00 | 24 | 1027.4 |
| 20260501223603 | 67 | 329 | 4.3 | 9.6 | 0.00 | 0.00 | 0.00 | 22 | 1027.4 |
| 20260501222703 | 66 | 15 | 4.3 | 11.3 | 0.00 | 0.00 | 0.00 | 23 | 1027.4 |
| 20260501221803 | 67 | 31 | 2.6 | 10.4 | 0.00 | 0.00 | 0.00 | 23 | 1027.4 |
| 20260501220903 | 66 | 12 | 2.6 | 9.6 | 0.00 | 0.00 | 0.00 | 24 | 1027.4 |
| 20260501220003 | 66 | 14 | 5.2 | 11.3 | 0.00 | 0.00 | 0.00 | 22 | 1027.4 |
| 20260501215403 | 67 | 340 | 4.3 | 11.3 | 0.00 | 0.00 | 0.00 | 23 | 1027.4 |
| 20260501214503 | 67 | 334 | 4.3 | 12.2 | 0.00 | 0.00 | 0.00 | 24 | 1027.4 |
| 20260501213624 | 67 | 342 | 1.7 | 7.8 | 0.00 | 0.00 | 0.00 | 23 | 1027.4 |
| 20260501212703 | 67 | 359 | 2.6 | 9.6 | 0.00 | 0.00 | 0.00 | 24 | 1027.4 |
| 20260501211803 | 66 | 32 | 3.5 | 7.8 | 0.00 | 0.00 | 0.00 | 22 | 1027.4 |
| 20260501210903 | 66 | 16 | 3.5 | 9.6 | 0.00 | 0.00 | 0.00 | 23 | 1027.4 |
| 20260501210003 | 68 | 35 | 1.7 | 8.7 | 0.00 | 0.00 | 0.00 | 22 | 1027.4 |
| 20260501205424 | 68 | 314 | 3.5 | 10.4 | 0.00 | 0.00 | 0.00 | 22 | 1027.4 |
| 20260501204503 | 68 | 331 | 3.5 | 8.7 | 0.00 | 0.00 | 0.00 | 26 | 1027.4 |
| 20260501203603 | 68 | 228 | 1.7 | 6.1 | 0.00 | 0.00 | 0.00 | 23 | 1027.4 |
| 20260501202724 | 66 | 232 | 0.0 | 4.3 | 0.00 | 0.00 | 0.00 | 25 | 1027.4 |
| 20260501201803 | 65 | 308 | 0.9 | 7.0 | 0.00 | 0.00 | 0.00 | 26 | 1027.4 |
| 20260501200924 | 65 | 326 | 3.5 | 7.8 | 0.00 | 0.00 | 0.00 | 23 | 1027.4 |
| 20260501200024 | 65 | 359 | 3.5 | 10.4 | 0.00 | 0.00 | 0.00 | 24 | 1027.4 |
| 20260501195403 | 66 | 333 | 2.6 | 9.6 | 0.00 | 0.00 | 0.00 | 26 | 1027.4 |
| 20260501194524 | 66 | 293 | 1.7 | 6.1 | 0.00 | 0.00 | 0.00 | 26 | 1027.4 |
| 20260501193603 | 64 | 333 | 3.5 | 10.4 | 0.00 | 0.00 | 0.00 | 25 | 1027.4 |
| 20260501192703 | 64 | 336 | 3.5 | 10.4 | 0.00 | 0.00 | 0.00 | 26 | 1027.4 |
| 20260501191803 | 64 | 347 | 3.5 | 8.7 | 0.00 | 0.00 | 0.00 | 26 | 1027.4 |
| 20260501190903 | 65 | 347 | 3.5 | 9.6 | 0.00 | 0.00 | 0.00 | 23 | 1027.4 |
| 20260501190003 | 64 | 315 | 4.3 | 9.6 | 0.00 | 0.00 | 0.00 | 24 | 1027.4 |
| 20260501185424 | 64 | 308 | 2.6 | 9.6 | 0.00 | 0.00 | 0.00 | 26 | 1027.4 |
| 20260501184504 | 64 | 23 | 2.6 | 7.8 | 0.00 | 0.00 | 0.00 | 24 | 1027.4 |
| 20260501183603 | 63 | 46 | 3.5 | 10.4 | 0.00 | 0.00 | 0.00 | 23 | 1027.4 |
| 20260501182703 | 64 | 352 | 3.5 | 10.4 | 0.00 | 0.00 | 0.00 | 24 | 1027.4 |
| 20260501181803 | 63 | 316 | 3.5 | 10.4 | 0.00 | 0.00 | 0.00 | 24 | 1027.4 |
| 20260501180924 | 63 | 17 | 4.3 | 9.6 | 0.00 | 0.00 | 0.00 | 24 | 1027.4 |
| 20260501180003 | 62 | 40 | 3.5 | 8.7 | 0.00 | 0.00 | 0.00 | 25 | 1027.4 |
| 20260501175403 | 62 | 56 | 5.2 | 10.4 | 0.00 | 0.00 | 0.00 | 25 | 1027.4 |
| 20260501174503 | 62 | 37 | 1.7 | 8.7 | 0.00 | 0.00 | 0.00 | 26 | 1027.4 |
| 20260501173603 | 62 | 100 | 2.6 | 7.0 | 0.00 | 0.00 | 0.00 | 28 | 1027.4 |
| 20260501172703 | 62 | 340 | 0.9 | 7.8 | 0.00 | 0.00 | 0.00 | 27 | 1027.4 |
| 20260501171803 | 62 | 333 | 1.7 | 7.0 | 0.00 | 0.00 | 0.00 | 30 | 1027.4 |
| 20260501170903 | 61 | 344 | 1.7 | 5.2 | 0.00 | 0.00 | 0.00 | 29 | 1027.4 |
| 20260501170004 | 61 | 347 | 2.6 | 7.0 | 0.00 | 0.00 | 0.00 | 30 | 1027.4 |
| 20260501165403 | 60 | 354 | 0.9 | 7.0 | 0.00 | 0.00 | 0.00 | 30 | 1027.4 |
| 20260501164503 | 60 | 327 | 0.9 | 7.0 | 0.00 | 0.00 | 0.00 | 31 | 1027.4 |
| 20260501163603 | 59 | 41 | 1.7 | 5.2 | 0.00 | 0.00 | 0.00 | 30 | 1027.4 |
| 20260501162724 | 59 | 57 | 2.6 | 5.2 | 0.00 | 0.00 | 0.00 | 31 | 1027.4 |
| 20260501161803 | 58 | 61 | 2.6 | 7.0 | 0.00 | 0.00 | 0.00 | 33 | 1027.4 |
| 20260501160903 | 58 | 53 | 1.7 | 5.2 | 0.00 | 0.00 | 0.00 | 32 | 1027.4 |
| 20260501160024 | 58 | 47 | 1.7 | 4.3 | 0.00 | 0.00 | 0.00 | 34 | 1027.4 |
| 20260501155403 | 58 | 45 | 1.7 | 4.3 | 0.00 | 0.00 | 0.00 | 34 | 1027.4 |
| 20260501154503 | 57 | 37 | 0.9 | 4.3 | 0.00 | 0.00 | 0.00 | 36 | 1027.4 |
| 20260501153603 | 56 | 36 | 0.9 | 3.5 | 0.00 | 0.00 | 0.00 | 38 | 1027.4 |
| 20260501152703 | 56 | 47 | 0.9 | 3.5 | 0.00 | 0.00 | 0.00 | 38 | 1027.4 |
| 20260501151803 | 56 | 48 | 0.9 | 4.3 | 0.00 | 0.00 | 0.00 | 39 | 1027.4 |
| 20260501150903 | 55 | 51 | 0.9 | 3.5 | 0.00 | 0.00 | 0.00 | 40 | 1027.4 |